Volver al catálogo

CZ-2C R/B

ActivoSSO
NORAD 63127·ROCKET BODY·🇨🇳 China

Lanzado Feb 27, 2025 desde Jiuquan Satellite Launch Center

Loading…

Próximos Pases (próximas 24 horas)

TLE

ActualizadoSource: Space-Track

Época: Sep 14, 2026, 21:46 UTC

1 63127U 25040C   26257.90722749  .00014705  00000-0  36375-3 0  9996
2 63127  97.1798   6.4120 0013649  97.7572 262.5225 15.40450351 86472

Sigue CZ-2C R/B en tiempo real con AllMySat

Download on the App Store